This demonstration page uses our WeatherBlox Daily Observations layout. Learn more.

Left ArrowRight Arrow

30.21309, -93.2044

Hourly Observations for August 22, 2022

Temp ( °F °C ) Dew Point ( °F °C ) Humidity (%) Winds ( mph kmh ) Pressure ( in mb ) Visibility ( mi km ) Precip ( " mm )
12:15 am 00:15 Partly Cloudy 78 25.6 76 24.3 93 93 Calm 30.01 1016 7 11 0.00 0.00
12:35 am 00:35 Partly Cloudy 78 25.5 76 24.2 93 93 ESE 3 6 30.00 1016 7 11 0.00 0.00
12:55 am 00:55 Clear 78 25.4 76 24.2 93 93 SSE 3 6 30.00 1016 7 11 0.00 0.00
1:15 am 01:15 Clear 78 25.4 76 24.2 93 93 SSE 5 7 30.00 1016 7 11 0.00 0.00
1:35 am 01:35 Clear 78 25.5 76 24.4 94 94 Calm 30.00 1016 7 11 0.00 0.00
1:55 am 01:55 Partly Cloudy with Mist and Fog 78 25.3 76 24.2 94 94 ESE 3 6 29.99 1016 5 8 0.00 0.00
2:15 am 02:15 Partly Cloudy with Mist and Fog 77 25.2 76 24.2 94 94 ESE 3 6 29.99 1016 5 8 0.00 0.00
2:35 am 02:35 Clear with Mist and Fog 77 25 75 24.1 95 95 ESE 3 6 29.98 1015 4 6 0.00 0.00
2:55 am 02:55 Clear with Mist and Fog 77 25.1 76 24.2 95 95 Calm 29.98 1015 4 6 0.00 0.00
3:15 am 03:15 Partly Cloudy with Mist and Fog 77 24.9 75 24 95 95 SE 3 6 29.97 1015 3 5 0.00 0.00
3:35 am 03:35 Clear with Mist and Fog 77 24.9 75 24.1 95 95 ESE 3 6 29.97 1015 4 6 0.00 0.00
3:55 am 03:55 Partly Cloudy with Mist and Fog 77 24.9 75 24.1 95 95 ESE 5 7 29.97 1015 4 6 0.00 0.00
4:15 am 04:15 Partly Cloudy with Mist and Fog 77 25.1 76 24.3 95 95 ESE 5 7 29.96 1015 4 6 0.00 0.00
4:35 am 04:35 Clear with Mist and Fog 77 25.1 76 24.3 95 95 SE 3 6 29.97 1015 4 6 0.00 0.00
4:55 am 04:55 Clear with Mist and Fog 78 25.5 76 24.6 95 95 SE 6 9 29.96 1014 7 11 0.00 0.00
5:15 am 05:15 Partly Cloudy with Mist and Fog 78 25.5 76 24.5 94 94 SSE 5 7 29.96 1014 5 8 0.00 0.00
5:35 am 05:35 Clear 78 25.5 76 24.4 94 94 S 3 6 29.96 1014 7 11 0.00 0.00
6:00 am 06:00 Mostly Clear 77 25 75 24 94 94 Calm 29.96 1015 7 11 0.00 0.00
6:50 am 06:50 Mostly Cloudy 79 26 73 23 84 84 Calm 29.97 1015 10 16 0.00 0.00
7:50 am 07:50 Mostly Cloudy 81 27 75 24 84 84 SSE 8 13 29.98 1015 10 16 0.00 0.00
8:45 am 08:45 Partly Cloudy 82 28 77 25 84 84 SSE 12 19 29.97 1015 10 16 0.00 0.00
9:55 am 09:55 Partly Cloudy 88 31 77 25 71 71 SSE 13 20 29.98 1015 10 16 0.00 0.00
10:55 am 10:55 Mostly Cloudy with Showers 86 30 79 26 79 79 S 8 13 29.97 1015 10 16 0.00 0.00
11:55 am 11:55 Mostly Cloudy 88 31 75 24 66 66 SSW 13 20 29.96 1014 10 16 0.00 0.00
12:47 pm 12:47 Mostly Cloudy 88 31 75 24 66 66 SSW 14 22 29.96 1014 10 16 0.00 0.00
1:54 pm 13:54 Mostly Cloudy 88 31 77 25 71 71 SSE 14 22 29.95 1014 10 16 0.00 0.00
2:50 pm 14:50 Partly Cloudy 90 32 75 24 63 63 S 16 26 29.92 1013 10 16 0.00 0.00
3:55 pm 15:55 Partly Cloudy 88 31 75 24 66 66 SSW 12 19 29.90 1012 10 16 0.00 0.00
4:51 pm 16:51 Partly Cloudy 88 31 75 24 66 66 SSW 10 17 29.88 1012 10 16 0.00 0.00
5:56 pm 17:56 Partly Cloudy 86 30 75 24 70 70 S 9 15 29.88 1012 10 16 0.00 0.00
6:52 pm 18:52 Partly Cloudy 84 29 77 25 79 79 S 8 13 29.90 1012 10 16 0.00 0.00
7:53 pm 19:53 Mostly Clear 81 27 77 25 89 89 SSE 7 11 29.89 1012 10 16 0.00 0.00
8:49 pm 20:49 Mostly Clear 81 27 75 24 84 84 SSE 8 13 29.89 1012 10 16 0.00 0.00
9:57 pm 21:57 Mostly Clear 81 27 75 24 84 84 SSE 8 13 29.88 1012 10 16 0.00 0.00
10:15 pm 22:15 Clear 80 26.9 76 24.5 87 87 SSE 8 13 29.89 1012 10 16 0.00 0.00
10:35 pm 22:35 Clear 80 26.7 76 24.4 87 87 SSE 6 9 29.91 1013 10 16 0.00 0.00
10:55 pm 22:55 Partly Cloudy 80 26.5 76 24.4 88 88 SSE 7 11 29.90 1012 10 16 0.00 0.00
11:15 pm 23:15 Partly Cloudy 80 26.6 76 24.5 88 88 SE 7 11 29.90 1012 10 16 0.00 0.00
11:35 pm 23:35 Clear 79 26.2 76 24.3 89 89 SSE 3 6 29.92 1013 10 16 0.00 0.00
11:55 pm 23:55 Clear 79 26.2 76 24.3 89 89 ESE 3 6 29.92 1013 10 16 0.00 0.00

Powered by AerisWeather